This is the latest recevied weather packets stored in our database for station/object ER1XDX-13. If no packets are shown the sender has not sent any weather packets the latest 1 day(s).
| Time | Temp. | Humidity | Pressure | Rain* | Wind** | Luminosity | Snow |
|---|---|---|---|---|---|---|---|
| 1777887828 | 21.67° C | 28% | 1005 hPa | - | - | - | - |
| 1777886928 | 21.11° C | 28% | 1005.1 hPa | - | - | - | - |
| 1777886028 | 21.67° C | 28% | 1005.2 hPa | - | - | - | - |
| 1777885128 | 21.67° C | 28% | 1005.2 hPa | - | - | - | - |
| 1777884228 | 21.67° C | 28% | 1005.2 hPa | - | - | - | - |
| 1777883328 | 21.67° C | 29% | 1005.3 hPa | - | - | - | - |
| 1777882427 | 21.67° C | 28% | 1005.4 hPa | - | - | - | - |
| 1777881527 | 21.67° C | 28% | 1005.3 hPa | - | - | - | - |
| 1777880627 | 21.67° C | 28% | 1005.4 hPa | - | - | - | - |
| 1777879727 | 22.22° C | 29% | 1005.2 hPa | - | - | - | - |
| 1777878827 | 22.78° C | 30% | 1005.1 hPa | - | - | - | - |
| 1777877927 | 22.78° C | 30% | 1005.1 hPa | - | - | - | - |
| 1777877027 | 22.78° C | 29% | 1005 hPa | - | - | - | - |
| 1777876136 | 22.22° C | 29% | 1005 hPa | - | - | - | - |
| 1777875227 | 22.22° C | 29% | 1005 hPa | - | - | - | - |
| 1777874327 | 22.22° C | 28% | 1005.1 hPa | - | - | - | - |
| 1777873428 | 22.22° C | 26% | 1005 hPa | - | - | - | - |
| 1777872527 | 22.22° C | 25% | 1005.1 hPa | - | - | - | - |
| 1777871626 | 21.67° C | 26% | 1005.2 hPa | - | - | - | - |
| 1777870726 | 21.67° C | 26% | 1005.1 hPa | - | - | - | - |
| 1777869826 | 21.11° C | 26% | 1005.1 hPa | - | - | - | - |
| 1777868926 | 21.11° C | 26% | 1005.4 hPa | - | - | - | - |
| 1777868026 | 20.56° C | 26% | 1005.4 hPa | - | - | - | - |
| 1777867126 | 20° C | 27% | 1005.2 hPa | - | - | - | - |
| 1777866226 | 20° C | 27% | 1005.4 hPa | - | - | - | - |
* Rain since midnight (hover to see other rain measurements)
** Current wind speed in m/s (hover to see current wind gust speed)